Location: General Nathan Twining Observatory
(34.5931°N, 106.8201°W)
Time: 14:07:07
(UTC-06:00)

ADEOS II - Visible Passes

Search period start: 28 May 2016 00:00
Search period end: 07 June 2016 00:00
Orbit: 799 x 802 km, 98.3° (Epoch: 27 May)

Date Brightness Start Highest point End Pass type
(mag) Time Alt. Az. Time Alt. Az. Time Alt. Az.
29 May 3.4 05:06:40 10° NNE 05:11:36 40° E 05:16:30 10° SSE visible
30 May 4.4 04:41:06 10° NE 04:45:07 22° E 04:49:08 10° SE visible
31 May 4.9 04:16:49 10° ENE 04:18:34 12° E 04:20:18 10° ESE visible
01 Jun 2.6 05:27:09 10° NNE 05:32:24 66° ESE 05:37:37 10° S visible
02 Jun 3.6 05:01:11 10° NNE 05:06:00 36° E 05:10:48 10° SSE visible
03 Jun 4.5 04:35:45 10° NE 04:39:31 20° E 04:43:16 10° SE visible
05 Jun 2.8 05:21:37 10° NNE 05:26:50 59° E 05:31:59 10° S visible
06 Jun 3.8 04:55:44 10° NE 05:00:25 32° E 05:05:03 10° SSE visible
